Location: Big Meadows
(38.5260°N, 78.4400°W)
Time: 02:21:07
(UTC-04:00)

Daily predictions for brighter satellites

Satellite Brightness Start Highest point End
(mag) Time Altitude Azimuth Time Altitude Azimuth Time Altitude Azimuth
Resurs 1-4 Rocket 4.2 03:37:40 10° N 03:39:16 20° N 03:39:16 20° N
CZ-4C R/B 3.9 03:57:55 25° N 03:57:55 25° N 04:00:56 10° NNE
Cosmos 2297 Rocket 4.2 04:03:37 18° NNW 04:03:37 18° NNW 04:05:25 10° N
CZ-2D R/B 4.1 04:06:32 10° N 04:08:08 19° N 04:08:08 19° N
BREEZE-M DEB (TANK) 4.5 03:55:52 10° WNW 04:22:39 88° SSW 04:28:10 10° ESE
ASTEX 1 4.4 04:19:48 10° NNE 04:24:28 42° E 04:25:16 39° ESE
Meteor 1-5 Rocket 4.2 04:29:18 10° N 04:35:13 86° WNW 04:35:13 86° WNW
Cosmos 1140 Rocket 3.6 04:36:44 73° NNE 04:36:44 73° NNE 04:41:29 10° NNE
Cosmos 2180 Rocket 4.3 04:37:47 78° WSW 04:38:03 79° W 04:44:17 10° N
Cosmos 1603 3.6 04:33:15 10° NNW 04:38:55 88° ENE 04:44:36 10° SSE
CZ-4B R/B 4.0 04:41:34 10° NNE 04:45:27 39° E 04:46:00 37° ESE
Atlas Centaur 2 3.3 04:46:12 29° SSE 04:46:12 29° SSE 04:50:16 10° ESE
Cosmos 1378 Rocket 4.3 04:52:26 44° N 04:52:26 44° N 04:55:30 10° N
MOS 1-B 4.3 04:48:38 10° NNE 04:54:28 85° ESE 04:56:46 39° S
Cosmos 1954 Rocket 4.2 04:55:01 54° NW 04:55:01 54° NW 04:59:50 10° N
Okean O Rocket 2.4 04:57:11 10° NNE 05:01:25 49° E 05:04:04 21° SSE
Cosmos 1655 Rocket 4.3 04:57:32 10° NNW 05:02:59 43° WNW 05:02:59 43° WNW
Cosmos 1943 3.4 04:58:15 10° NNW 05:03:58 73° ENE 05:09:38 10° SSE
Cosmos 614 Rocket 3.9 05:06:04 57° WNW 05:06:15 57° WNW 05:11:18 10° N
Cosmos 2266 Rocket 4.0 05:02:55 10° N 05:09:22 88° W 05:15:46 10° S
ADEOS II 2.0 05:04:30 10° N 05:09:45 71° WNW 05:11:27 43° SW
SL-8 R/B 3.6 05:09:30 64° WSW 05:10:15 89° NW 05:15:05 10° ENE
Cosmos 2263 Rocket 2.1 05:11:24 36° SSW 05:13:52 84° WNW 05:19:36 10° NNE
Cosmos 220 Rocket 3.8 05:17:31 51° SSW 05:18:34 82° WNW 05:22:54 10° NNE
SL-24 DEB 4.5 05:16:54 10° N 05:21:31 48° W 05:22:18 44° WSW
DELTA 2 R/B (1) 3.6 05:19:29 39° W 05:21:37 79° N 05:27:13 10° E
Cosmos 1437 Rocket 2.7 05:18:42 10° N 05:22:38 89° ENE 05:26:38 10° S
Cosmos 2084 3.2 05:26:06 53° SW 05:26:06 53° SW 05:29:52 10° SSE
TELKOM 3 3.4 05:35:16 55° NNE 05:35:16 55° NNE 05:37:05 10° NE
BREEZE-M R/B 3.4 05:35:48 41° WSW 05:36:49 88° NNW 05:44:46 10° NE
Meteor PRIRODA 3.8 05:35:14 10° NNE 05:38:55 74° ESE 05:42:36 10° S
Cosmos 1812 4.5 05:40:57 18° NW 05:40:57 18° NW 05:42:38 10° NNW
GPS 2-05 Rocket1 3.3 05:41:11 34° SSW 05:41:21 34° SSW 05:44:12 10° SE
Cosmos 1607 4.2 05:38:46 25° WSW 05:42:22 53° NW 05:48:35 10° NNE
ATLAS 3B R/B 3.2 05:35:05 10° SSW 05:42:27 66° ESE 05:49:34 10° NE
Tiangong 1 1.7 05:43:14 31° NNW 05:43:59 40° NNE 05:46:33 10° E
CZ-4B R/B 3.0 05:42:25 10° N 05:47:41 70° WNW 05:52:57 10° SSW
CZ-3 R/B 3.4 05:35:17 16° WSW 05:49:21 40° S 05:55:19 10° ESE
Cosmos 332 Rocket 3.7 05:47:43 10° NNW 05:52:33 87° WSW 05:57:20 10° SSE
PSLV R/B 4.3 05:49:22 10° N 05:53:06 32° WNW 05:55:04 21° WSW
ISS -1.9 05:54:23 16° SSW 05:54:23 16° SSW 05:55:47 10° S
Cosmos 1975 Rocket 4.1 05:54:22 22° WSW 05:55:50 26° WNW 05:59:34 10° NNW
Cosmos 1544 Rocket 3.5 05:51:59 10° NNW 05:56:16 61° W 06:00:32 10° S
Abrixas rocket 3.7 05:55:09 19° WNW 05:56:28 25° NNW 05:59:15 10° NE
Meteor 1-4 Rocket 2.6 05:54:14 10° N 05:57:43 76° E 06:01:11 10° SSE
Cosmos 371 Rocket 3.3 05:53:23 10° NNW 05:58:17 89° ENE 06:03:08 10° SSE
Cosmos 1500 4.3 05:56:55 10° NW 05:59:51 22° W 06:00:31 21° WSW
Okean-O 3.5 05:56:42 10° NNE 06:01:04 53° E 06:05:23 10° S
Cosmos 1975 3.5 06:00:06 10° NNW 06:03:47 33° W 06:07:28 10° SSW
Cosmos 1455 Rocket 3.1 06:00:02 10° NNW 06:04:17 55° W 06:08:29 10° S
ATLAS CENTAUR R/B 4.2 06:08:24 10° SE 06:10:35 14° ESE 06:12:44 10° ENE
USA 215 3.9 06:05:05 10° ESE 06:11:26 56° NE 06:17:48 10° NW
Meteor 2-9 Rocket 4.4 06:07:12 10° N 06:12:38 77° E 06:18:10 10° SSE
IDEFIX/ARIANE 42P 4.3 06:09:35 10° NNE 06:14:27 36° E 06:19:16 10° SSE
COSMOS 2406 4.5 06:09:43 10° N 06:15:17 46° ENE 06:20:48 10° SE
CZ-2C R/B 3.9 06:12:29 10° S 06:17:02 54° W 06:21:41 10° NNW
Cosmos 1745 Rocket 4.3 06:11:55 10° N 06:18:19 77° E 06:24:38 10° S
Cosmos 1486 Rocket 4.3 06:13:28 10° S 06:18:42 75° ESE 06:23:56 10° NNE
SKYMED 2 4.2 06:14:42 10° SSE 06:18:58 61° ENE 06:23:15 10° N
Cosmos 1536 Rocket 3.8 06:16:53 10° SSW 06:21:01 45° W 06:25:12 10° N
EO 1 Del DPAF 3.1 06:17:14 10° S 06:21:02 73° WSW 06:24:52 10° NNW
Cosmos 468 Rocket 4.0 06:16:07 10° NNW 06:21:22 62° WSW 06:26:35 10° S
Cosmos 841 Rocket 4.3 06:16:54 10° N 06:22:00 56° ENE 06:27:06 10° SSE
CZ-2C R/B 4.4 06:18:13 10° NE 06:22:17 31° E 06:26:24 10° SSE
GEOS 3 Rocket 3.7 06:17:17 10° SE 06:22:27 84° NE 06:27:45 10° NNW
Cosmos 1553 Rocket 3.9 06:16:54 10° SSW 06:23:02 71° W 06:29:08 10° N
Meteor 1-31 Rocket 3.5 06:22:02 10° N 06:25:33 33° WNW 06:29:01 10° SW
NOSS 3-2 (A) 4.3 06:20:03 10° SSW 06:25:45 54° ESE 06:31:58 10° NE
Radarsat Rocket 4.5 06:20:18 10° NNE 06:26:14 69° ESE 06:32:41 10° S
Cosmos 2278 Rocket 4.4 06:22:22 10° SSE 06:27:11 30° ESE 06:32:02 10° NE
Meteor 1-23 Rocket 4.2 06:28:19 10° S 06:33:52 85° W 06:39:28 10° N
Atlas Centaur 2 2.9 06:29:31 10° WSW 06:34:22 32° S 06:38:20 10° ESE
Okean 1-7 Rocket 4.1 06:30:33 10° S 06:34:59 70° E 06:39:32 10° NNE
Okean O Rocket 3.3 06:35:02 10° NNW 06:37:21 14° WNW 06:39:38 10° W
S3M 4.1 06:35:32 10° SSW 06:41:38 56° W 06:47:51 10° N
